FENGYUN 1C DEB

Satellite information

Favourite Embed

Satellite Type and Status

DEBRISIN ORBIT

Key statistics

Satellite FENGYUN 1C DEB at a glance.

Uptime

9664

Days in orbit

Revolutions

≈ 14.6

Per day

Orbit

SSO

Sun Synchronous Orbit

Inclination

99.1

Latest

Satellite identification and parameters

Extended collection of information and parameters for FENGYUN 1C DEB.

Object identification

Identified? True

Debris? True

Object name: FENGYUN 1C DEB

International designator: 1999-025XH

Object number (NORAD): 30248

Object ID (CCSDS): 30248

Country: PEOPLES REPUBLIC OF CHINA (PRC)

Current information (Y/N): Y

RCS size: SMALL

Orbital parameters

Period: 98.86 minutes

Inclination: 99.1025 deg

SMA: 7082.283 km

Apoapsis: 727.156 km

Periapsis: 681.141 km

RAAN: 114.7745 deg

Eccentricy: 0.00324857

Argument of periapsis: 304.349 deg

Mean anomaly: 55.4633 deg

Mean motion: 14.56608386 rev/day

Mean motion (dot): 0.00020882 rev/day2

B* drag term: 0.0046490997 1/REarth

Two-line elements (TLE)

Creation date: Oct. 23, 2025, 2:46 a.m.

Reference frame: TEME

Reference center: EARTH

Epoch: Oct. 22, 2025, 10:36 a.m. UTC

TLE line 0: 0 FENGYUN 1C DEB

TLE line 1: 1 30248U 99025XH 25295.44193028 .00020882 00000-0 46491-2 0 9992

TLE line 2: 2 30248 99.1025 114.7745 0032486 304.3490 55.4633 14.56608386966813

Live tracking on map

Real-time ground track for satellite FENGYUN 1C DEB.

In-orbit conjunctions

A list of the most updated potential collisions computed for object FENGYUN 1C DEB.

Target Orbit TCA Probability of collision Miss distance Type
SAC C SSO 2025-10-13 20:29:08 0.000169009 45.0 (m) PAYLOAD
CZ-6A DEB LEO 2024-12-23 03:54:10 0.000208752 367.0 (m) DEBRIS
COSMOS 1275 DEB LEO 2024-11-09 03:16:14 0.0003559256 565.0 (m) DEBRIS

Associated space launch

Chinese polar orbiting meteorological satellite

FENGYUN 1C DEB was lifted into orbit during the mission ‘Long March 4B | Feng Yun 1C’, on board a Long March 4B space rocket.

The launch took place on May 10, 1999, 1:33 a.m. from Launch Complex 7.

For more information about the launch, click the button.

Launch to space Long March 4B | Feng Yun 1C
Long March 4B | Feng Yun 1C

Agency: N/A

Status: Launch Successful

Launch date: May 10, 1999, 1:33 a.m. UTC

Rocket: Long March 4B

Launch pad: Launch Complex 7

Location: Taiyuan Satellite Launch Center, People's Republic of China

...

Latest news about this satellite

There are no fresh news available about this satellite. Check back as we update our databases every day.


Newsletter sign-up

Weekly statistics, charts and insights to help you stay on top of the space industry.